Regional Weather Roundup
Issued by NWS

Home | Current Version | Previous Version | Graphics & Text | Print | Product List | Glossary Off
Versions: 1 2 3 4 5 6 7 8 9 10 11 12 13 14 15 16 17 18 19 20 21 22 23 24 25 26 27 28 29 30 31 32 33 34 35 36 37 38 39 40 41 42 43 44 45 46 47 48 49 50

000
ASUS43 KLOT 051600
RWRIL

ILLINOIS REGIONAL WEATHER ROUNDUP
NATIONAL WEATHER SERVICE CHICAGO/ROMEOVILLE IL
1100 AM CDT SUN JUL 05 2015

NOTE: "FAIR" INDICATES FEW OR NO CLOUDS BELOW 12,000 FEET WITH NO
SIGNIFICANT WEATHER AND/OR OBSTRUCTIONS TO VISIBILITY.

* THESE STATIONS ARE NOT UNDER NWS QUALITY CONTROL. THEY ALSO MAY NOT
  REPORT WEATHER SUCH AS PRECIPITATION OR FOG.

ILZ001-002-007-009-015-016-024-051700-
NORTHWEST ILLINOIS

CITY           SKY/WX    TMP DP  RH WIND       PRES   REMARKS
MOLINE         SUNNY     79  65  62 S6        30.05F HX  81
STERLING*      SUNNY     81  68  65 S3        30.07S HX  83
$$

ILZ003-004-008-010-011-017-018-051700-
NORTH CENTRAL ILLINOIS

CITY           SKY/WX    TMP DP  RH WIND       PRES   REMARKS
ROCKFORD       MOSUNNY   78  63  59 SW8       30.09S HX  80
$$

ILZ005-006-012>014-019>023-051700-
NORTHEAST ILLINOIS

CITY           SKY/WX    TMP DP  RH WIND       PRES   REMARKS
CHICAGO-OHARE  MOSUNNY   78  59  51 SW9       30.08S
CHICAGO-MIDWAY PTSUNNY   81  61  50 SW8       30.09R HX  82
AURORA         SUNNY     78  62  57 S5        30.09S HX  80
LANSING*       SUNNY     78  57  49 SW3       30.10R
WAUKEGAN       SUNNY     78  61  55 VRB6      30.08S HX  80
DUPAGE AIRPORT SUNNY     78  61  55 SW7       30.08F HX  80
WHEELING       MOSUNNY   79  59  50 SW8       30.09F HX  80
NORTHERLY ISL    N/A     73  64  73 E6          N/A
$$

LMZ740>746-051700-
SOUTHERN LAKE MICHIGAN

STATION/POSITION SKY/WX   TEMP    WIND        PRES    VSBY  WAVE
                          AIR SEA DIR/SP/G                  HT/PER
                          (F)     (DEG/KT/KT) (MB)    (MI)  (FT/S)
HARRISON CRIB              70     100/  7/  9   N/A
BURNHAM HARBOR             73      90/  5/  6   N/A
CALUMET HARBOR             77     190/  3/  6   N/A
BURNS HARBOR               71     350/  2/  4 1019.6F
MICHIGAN CITY              72     280/  2/  3   N/A
MICHIGAN CITY 6N           70 65  280/  2/  2   N/A           0
ST. JOSEPH                 69 64                N/A           0
$$

ILZ025>027-034>036-040-047-049-050-058-095>099-051700-
WEST-CENTRAL ILLINOIS

CITY           SKY/WX    TMP DP  RH WIND       PRES   REMARKS
QUINCY         SUNNY     79  70  74 VRB6      30.06S HX  82
MACOMB*        SUNNY     78  66  66 S6        30.09S HX  80
$$

ILZ028>032-037-038-041>044-048-051>054-059>061-051700-
CENTRAL ILLINOIS

CITY           SKY/WX    TMP DP  RH WIND       PRES   REMARKS
DECATUR        MOSUNNY   78  64  61 SW3       30.09S HX  80
PEORIA         SUNNY     80  64  58 VRB6      30.08S HX  82
SPRINGFIELD    SUNNY     80  65  59 S5        30.08S HX  82
TAYLORVILLE    NOT AVBL
$$

ILZ033-039-045-046-055>057-062-063-051700-
EAST-CENTRAL ILLINOIS

CITY           SKY/WX    TMP DP  RH WIND       PRES   REMARKS
CHAMPAIGN      SUNNY     78  64  61 CALM      30.10R HX  80
MATTOON        MOSUNNY   78  65  63 CALM      30.08S HX  80
$$

ILZ079-100>102-051700-
SOUTHWEST ILLINOIS

CITY           SKY/WX    TMP DP  RH WIND       PRES   REMARKS
BELLEVILLE     MOSUNNY   79  71  77 SW6       30.05F HX  82
CAHOKIA*       SUNNY     81  67  62 SE3       30.06F HX  83
SPARTA*        PTSUNNY   80  67  64 CALM      30.08F HX  82
$$

ILZ064>066-069>071-074>076-080>082-084>086-088>090-092>094-051700-
SOUTH-CENTRAL ILLINOIS

CITY           SKY/WX    TMP DP  RH WIND       PRES   REMARKS
CARBONDALE     MOSUNNY   80  66  62 E3        30.08S HX  82
MARION         MOSUNNY   79  66  65 N3        30.09S HX  81
MT. VERNON     MOSUNNY   81  64  57 E3        30.09S HX  82
SALEM*         SUNNY     80  64  57 CALM      30.08F HX  82
$$

ILZ067-068-072-073-078-083-087-091-051700-
SOUTHEAST ILLINOIS

CITY           SKY/WX    TMP DP  RH WIND       PRES   REMARKS
LAWRENCEVILLE  MOSUNNY   81  69  67 VRB5      30.08S HX  84
HARRISBURG*    MOSUNNY   76  72  87 CALM      30.09S
$$

ABBREVIATIONS USED IN REMARKS
   TC - TEMPERATURE IN CELSIUS
  WCI - WIND CHILL INDEX
   HX - HEAT INDEX
  VSB - VISIBILITY
$$




USA.gov is the U.S. government's official web portal to all federal, state and local government web resources and services.